Weather History for KBWI - September, 2013

Change the Weather History Date:

Monday, September 16, 2013

  Actual Average Record
Temperature  
Mean Temperature 67 °F 68 °F  
Max Temperature 75 °F 78 °F 98 °F (1991)
Min Temperature 58 °F 58 °F 41 °F (1873)
Degree Days  
Heating Degree Days 0 1  
Month to date heating degree days 7 8  
Since 1 July heating degree days 7 9  
Cooling Degree Days 2 4  
Month to date cooling degree days 139 96  
Year to date cooling degree days 1284 1106  
Growing Degree Days 18 (Base 50)    
Moisture  
Dew Point 54 °F    
Average Humidity 67    
Maximum Humidity 90    
Minimum Humidity 44    
Precipitation  
Precipitation 0.03 in 0.15 in 5.02 in (1999)
Month to date precipitation 0.70 2.04  
Year to date precipitation 26.27 29.89  
Snow  
Snow 0.00 in 0.00 in - ()
Month to date snowfall 0.0 0.0  
Since 1 July snowfall 0.0 0.0  
Snow Depth 0.00 in    
Sea Level Pressure  
Sea Level Pressure 30.11 in    
Wind  
Wind Speed 6 mph (NW)    
Max Wind Speed 14 mph    
Max Gust Speed 23 mph    
Visibility 10 miles    
Events Rain    
T = Trace of Precipitation, MM = Missing Value Source: NWS Daily Summary

Daily Weather History Graph

Daily Weather History Graph

Search for Another Location

Airport or City:

Trip Planner

Search our weather history database for the weather conditions in past years. The results will help you decide how hot, cold, wet, or windy it might be!

Date:

Astronomy

Sep. 16, 2013 Rise Set
Actual Time 6:49 AM EDT 7:13 PM EDT
Civil Twilight 6:22 AM EDT 7:39 PM EDT
Nautical Twilight 5:50 AM EDT 8:11 PM EDT
Astronomical Twilight 5:18 AM EDT 8:43 PM EDT
Moon 5:19 PM EDT (9/16) 3:33 AM EDT (9/16)
Length of Visible Light 13h 17m
Length of Day
12h 24m
Waxing Gibbous, 90% of the Moon is Illuminated
Sep 16
Waxing Gibbous
Sep 19
Full
Sep 26
Last Quarter
Oct 4
New
Oct 11
First Quarter

Hourly Weather History & Observations

Time (EDT) Temp. Dew Point Humidity Pressure Visibility Wind Dir Wind Speed Gust Speed Precip Events Conditions
12:54 AM 64.9 °F 55.9 °F 73% 30.09 in 10.0 mi SW 4.6 mph - N/A   Mostly Cloudy
1:54 AM 64.0 °F 55.9 °F 75% 30.08 in 10.0 mi SSW 5.8 mph - N/A   Mostly Cloudy
2:54 AM 64.0 °F 55.9 °F 75% 30.06 in 10.0 mi SW 6.9 mph - N/A   Mostly Cloudy
3:54 AM 63.0 °F 55.9 °F 78% 30.05 in 10.0 mi SW 4.6 mph - N/A   Mostly Cloudy
4:54 AM 63.0 °F 55.9 °F 78% 30.04 in 10.0 mi SW 4.6 mph - N/A   Mostly Cloudy
5:54 AM 62.1 °F 55.9 °F 80% 30.04 in 10.0 mi WSW 3.5 mph - N/A   Scattered Clouds
6:54 AM 62.1 °F 55.9 °F 80% 30.05 in 10.0 mi Calm Calm - N/A   Mostly Cloudy
7:54 AM 63.0 °F 57.0 °F 81% 30.08 in 10.0 mi NNW 4.6 mph - N/A   Mostly Cloudy
8:54 AM 64.9 °F 57.0 °F 75% 30.10 in 10.0 mi North 6.9 mph - 0.00 in Rain Light Rain
9:54 AM 63.0 °F 59.0 °F 87% 30.12 in 9.0 mi Variable 3.5 mph - 0.02 in Rain Light Rain
10:54 AM 63.0 °F 57.0 °F 81% 30.12 in 10.0 mi Variable 3.5 mph - 0.01 in Rain Light Rain
11:54 AM 66.0 °F 59.0 °F 78% 30.13 in 10.0 mi North 6.9 mph - 0.00 in   Mostly Cloudy
12:54 PM 69.1 °F 55.9 °F 63% 30.12 in 10.0 mi Variable 6.9 mph 16.1 mph N/A   Mostly Cloudy
1:54 PM 72.0 °F 52.0 °F 49% 30.12 in 10.0 mi North 6.9 mph - N/A   Mostly Cloudy
2:54 PM 73.0 °F 51.1 °F 46% 30.10 in 10.0 mi NNW 8.1 mph 18.4 mph N/A   Mostly Cloudy
3:54 PM 73.0 °F 50.0 °F 44% 30.11 in 10.0 mi North 9.2 mph 23.0 mph N/A   Mostly Cloudy
4:54 PM 72.0 °F 50.0 °F 46% 30.11 in 10.0 mi North 10.4 mph 17.3 mph N/A   Mostly Cloudy
5:54 PM 73.0 °F 50.0 °F 44% 30.12 in 10.0 mi North 9.2 mph 21.9 mph N/A   Mostly Cloudy
6:54 PM 70.0 °F 48.9 °F 47% 30.14 in 10.0 mi NNW 6.9 mph - N/A   Scattered Clouds
7:54 PM 66.9 °F 50.0 °F 54% 30.15 in 10.0 mi NNW 3.5 mph - N/A   Scattered Clouds
8:54 PM 63.0 °F 52.0 °F 67% 30.18 in 10.0 mi NNW 3.5 mph - N/A   Scattered Clouds
9:54 PM 61.0 °F 52.0 °F 72% 30.20 in 10.0 mi Calm Calm - N/A   Scattered Clouds
10:54 PM 62.1 °F 52.0 °F 70% 30.22 in 10.0 mi NNE 3.5 mph - N/A   Scattered Clouds
11:54 PM 62.1 °F 52.0 °F 70% 30.24 in 10.0 mi NNE 6.9 mph - N/A   Mostly Cloudy